Location: *
(43.0409°N, 0.1694°E)
Time: 12:56:35
(UTC+00:00)

GP-B - Pass Details

Date: 03 October 2023
Orbit: 626 x 630 km, 89.8° (Epoch: 01 December)

Event Time Altitude Azimuth Distance (km) Brightness Sun altitude
Exits shadow 04:52:46 18° 247° (WSW) 1,545 4.5 -12.8°
Maximum altitude 04:54:24 22° 278° (W) 1,385 4.3 -12.5°
Drops below altitude 10° 04:57:52 10° 329° (NNW) 2,021 5.4 -11.9°
Sets 05:00:32 0° 345° (NNW) 2,935 6.4 -11.4°
